{"data":{"norad_id":66713,"epoch":"2026-05-25T02:32:17.766816Z","epoch_age_seconds":65511,"freshness":"FRESH","line1":"1 66713U 25276AZ  26145.10576119  .00005474  00000+0  26074-3 0  9994","line2":"2 66713  97.4194 218.9820 0006165  88.2806 271.9135 15.19523297 26919","mean_motion":15.19523297,"eccentricity":0.0006165,"inclination_deg":97.4194,"raan_deg":218.982,"arg_perigee_deg":88.2806,"mean_anomaly_deg":271.9135,"bstar":0.00026074,"rev_number":2691,"period_min":94.766562832106,"perigee_km":503.03543409883,"apogee_km":511.52515362216,"semimajor_km":6885.4172938605,"source":"CELESTRAK","updated_at":"2026-05-25T13:38:13.347408Z"}}